sat.trackr.live / text

‹ back to catalog

MULE 4T

NORAD 67286 · 2025-313AQ

PAYLOAD ACTIVE UNKNOWN

§ Identity

Operator
Country
CIS
Launch date
2025-12-28
Launch site
VOSTO
Launch vehicle
Mass (kg)
RCS (m²)

External: N2YO · Heavens-Above · Gunter

§ Orbital elements

Epoch: 2026-05-25T03:50:38.579136Z

Period
94.50 min
Inclination
97.3940°
Eccentricity
0.0011207
Mean motion
15.23822172 rev/d
Perigee alt
486.6 km
Apogee alt
502.0 km
Semi-major
6,872.5 km
B*
3.2913e-4
RAAN
220.4080°
Arg perigee
80.1037°
Mean anomaly
280.1464°
Rev number
2,246

§ Raw data

MULE 4T1 67286U 25313AQ  26145.16016874  .00007874  00000+0  32913-3 0  99902 67286  97.3940 220.4080 0011207  80.1037 280.1464 15.23822172 22461

JSON: /api/v1/satellites/67286 · /tle

For live sub-satellite position, see the globe view (requires WebGL).

§ Visibility from observer

Set your observer location to see the next 7 days of passes ≥ 10°. The values pass through the URL so the page stays shareable.

No JS? Fill the form by hand. The geolocation button needs JavaScript.